Location: Brunsen
(51.8651°N, 9.8610°E)
Time: 21:25:33
(UTC+00:00)

CZ-2C R/B - Pass Details

Date: 12 August 2024
Orbit: 782 x 869 km, 98.3° (Epoch: 07 September)

Event Time Altitude Azimuth Distance (km) Brightness Sun altitude
Exits shadow 01:52:35 25° 213° (SSW) 1,642 3.6 -16.1°
Maximum altitude 01:55:08 39° 263° (W) 1,242 3.2 -15.8°
Drops below altitude 10° 02:00:13 10° 333° (NNW) 2,451 5.4 -15.3°
Sets 02:02:44 0° 341° (NNW) 3,375 6.3 -15.1°
